DG5MNJ Weather Reports


time (UTC)temp
C
wind
direction
speed
KPH
gust
KPH
rain 1hr
cm
rain 24hr
cm
rain mn
cm
humidity
%
barometer
mb
20260507085021 13 245 6.4 16.1 0.00 0.58 0.00 69 1011.4
20260507084501 12 305 12.9 17.7 0.00 0.58 0.00 69 1011.4
20260507084002 12 290 9.7 12.9 0.00 0.58 0.00 70 1011.3
20260507083501 12 282 8.0 12.9 0.00 0.58 0.00 71 1011.3
20260507083001 12 298 14.5 20.9 0.00 0.58 0.00 71 1011.4
20260507082501 12 268 11.3 11.3 0.00 0.58 0.00 70 1011.3
20260507082001 13 218 11.3 16.1 0.00 0.58 0.00 70 1011.1
20260507081501 13 258 12.9 14.5 0.00 0.58 0.00 69 1011.0
20260507081021 13 230 8.0 16.1 0.00 0.58 0.00 72 1011.2
20260507080502 12 248 14.5 14.5 0.00 0.58 0.00 73 1011.3
20260507080003 12 280 8.0 14.5 0.00 0.58 0.00 72 1011.1
20260507075502 12 260 8.0 8.0 0.00 0.58 0.00 76 1011.0
20260507075022 12 280 6.4 9.7 0.00 0.58 0.00 75 1011.0
20260507074502 11 268 8.0 12.9 0.00 0.58 0.00 74 1011.0
20260507074002 11 250 11.3 12.9 0.00 0.58 0.00 77 1011.1
20260507073502 11 222 6.4 12.9 0.00 0.58 0.00 77 1011.0
20260507073022 11 255 9.7 12.9 0.00 0.58 0.00 77 1011.0
20260507072502 11 182 14.5 22.5 0.00 0.58 0.00 78 1011.0
20260507072002 11 208 12.9 22.5 0.00 0.58 0.00 78 1010.9
20260507071502 10 252 9.7 12.9 0.00 0.58 0.00 83 1010.8
20260507071002 10 230 6.4 6.4 0.00 0.58 0.00 86 1011.0
20260507070503 10 225 6.4 6.4 0.00 0.58 0.00 86 1010.7
20260507070022 10 210 4.8 4.8 0.00 0.58 0.00 86 1010.7
20260507065502 10 220 4.8 8.0 0.00 0.58 0.00 85 1010.7
20260507065003 10 242 3.2 6.4 0.00 0.58 0.00 86 1010.7
20260507064522 10 228 8.0 9.7 0.00 0.58 0.00 86 1010.7
20260507064002 10 268 6.4 11.3 0.00 0.58 0.00 86 1010.7
20260507063502 10 260 4.8 6.4 0.00 0.58 0.00 86 1010.6
20260507063022 10 202 4.8 8.0 0.00 0.58 0.00 86 1010.7
20260507062502 10 280 8.0 11.3 0.00 0.58 0.00 86 1010.6
20260507062002 10 238 4.8 8.0 0.00 0.58 0.00 87 1010.6
20260507061502 10 215 9.7 9.7 0.00 0.58 0.00 87 1010.6
20260507061002 10 210 8.0 8.0 0.00 0.58 0.00 87 1010.6
20260507060502 10 235 4.8 6.4 0.00 0.58 0.00 87 1010.6
20260507060002 10 232 11.3 11.3 0.00 0.58 0.00 88 1010.7
20260507055502 9 262 11.3 12.9 0.00 0.58 0.00 88 1010.4
20260507055004 9 278 6.4 9.7 0.00 0.58 0.00 88 1010.1
20260507054522 9 248 4.8 6.4 0.00 0.58 0.00 89 1009.9
20260507054002 9 238 9.7 9.7 0.00 0.58 0.00 89 1010.1
20260507053502 8 258 8.0 11.3 0.00 0.58 0.00 90 1009.9
20260507053002 8 232 4.8 6.4 0.00 0.58 0.00 91 1010.0
20260507052502 8 248 6.4 8.0 0.00 0.58 0.00 91 1010.0
20260507052003 8 218 6.4 6.4 0.00 0.58 0.00 91 1009.9
20260507051502 8 192 6.4 8.0 0.00 0.58 0.00 91 1009.8
20260507051002 8 238 3.2 4.8 0.00 0.58 0.00 92 1009.7
20260507050502 8 198 4.8 4.8 0.00 0.58 0.00 92 1009.9
20260507050002 8 205 4.8 4.8 0.00 0.58 0.00 93 1009.7
20260507045522 8 228 1.6 3.2 0.00 0.58 0.00 93 1009.7
20260507045002 8 228 3.2 4.8 0.00 0.58 0.00 93 1009.6
20260507044502 8 185 4.8 8.0 0.00 0.58 0.00 93 1009.4
20260507044002 8 145 3.2 4.8 0.00 0.58 0.00 93 1009.5
20260507043501 8 202 3.2 3.2 0.00 0.58 0.00 92 1009.2
20260507043002 8 212 3.2 3.2 0.00 0.58 0.00 92 1009.2
20260507042502 8 190 3.2 4.8 0.00 0.58 0.00 92 1009.2
20260507042001 8 185 4.8 6.4 0.00 0.58 0.00 92 1009.3
20260507041502 8 195 3.2 4.8 0.00 0.58 0.00 92 1009.2
20260507041022 8 235 1.6 1.6 0.00 0.58 0.00 92 1009.0
20260507040522 8 228 1.6 1.6 0.00 0.58 0.00 92 1009.0
20260507040003 8 180 3.2 3.2 0.00 0.58 0.00 93 1009.1
20260507035501 8 228 3.2 3.2 0.00 0.58 0.00 92 1009.2
20260507035002 8 220 1.6 3.2 0.00 0.58 0.00 92 1009.1
20260507034502 8 205 4.8 4.8 0.00 0.58 0.00 92 1009.0
20260507034001 8 205 3.2 4.8 0.00 0.58 0.00 92 1009.1
20260507033501 8 208 3.2 3.2 0.00 0.58 0.00 92 1009.1
20260507033001 8 218 3.2 4.8 0.00 0.58 0.00 92 1009.1
20260507032501 8 235 4.8 4.8 0.00 0.58 0.00 92 1009.2
20260507032001 8 230 3.2 4.8 0.00 0.58 0.00 91 1009.1
20260507031501 8 240 3.2 3.2 0.00 0.58 0.00 91 1009.2
20260507031001 8 232 4.8 6.4 0.00 0.58 0.00 91 1009.2
20260507030521 8 218 4.8 8.0 0.00 0.58 0.00 91 1009.2
20260507030001 8 235 6.4 8.0 0.00 0.58 0.00 90 1009.1
20260507025502 8 210 6.4 6.4 0.00 0.58 0.00 90 1009.1
20260507025001 8 245 3.2 3.2 0.00 0.58 0.00 90 1009.0
20260507024521 8 250 4.8 6.4 0.00 0.58 0.00 90 1009.0
20260507024001 8 272 3.2 4.8 0.00 0.58 0.00 90 1009.1
20260507023501 8 262 3.2 4.8 0.00 0.58 0.00 90 1008.9
20260507023001 8 255 6.4 8.0 0.00 0.58 0.00 90 1008.9
20260507022521 8 248 3.2 4.8 0.00 0.58 0.00 90 1008.8
20260507022002 8 232 3.2 4.8 0.00 0.58 0.00 89 1008.9
20260507021501 8 260 6.4 6.4 0.00 0.58 0.00 90 1008.9
20260507021001 8 250 6.4 6.4 0.00 0.58 0.00 90 1008.9
20260507020501 8 300 4.8 6.4 0.00 0.58 0.00 89 1008.9
20260507020022 8 292 4.8 6.4 0.00 0.58 0.00 90 1008.5
20260507015502 8 250 9.7 9.7 0.00 0.58 0.00 89 1008.8
20260507015021 8 265 3.2 6.4 0.00 0.58 0.00 89 1008.6
20260507014501 8 232 6.4 8.0 0.00 0.58 0.00 89 1008.4
20260507014001 8 278 4.8 8.0 0.00 0.58 0.00 89 1008.4
20260507013501 8 250 6.4 6.4 0.00 0.58 0.00 89 1008.4
20260507013001 8 288 4.8 9.7 0.00 0.58 0.00 90 1008.4
20260507012501 8 270 9.7 9.7 0.00 0.58 0.00 90 1008.4
20260507012001 8 238 4.8 8.0 0.00 0.58 0.00 90 1008.5
20260507010501 8 235 4.8 8.0 0.00 0.58 0.00 90 1008.6
20260507010001 8 238 4.8 6.4 0.00 0.58 0.00 90 1008.4
20260507005501 8 262 4.8 4.8 0.00 0.58 0.00 90 1008.5
20260507005001 8 242 3.2 6.4 0.00 0.58 0.00 89 1008.6
20260507004521 8 238 6.4 8.0 0.00 0.58 0.00 89 1008.4
20260507004001 8 242 11.3 11.3 0.00 0.58 0.00 89 1008.3
20260507003501 8 280 8.0 9.7 0.00 0.58 0.00 90 1008.5
20260507003001 8 230 6.4 9.7 0.00 0.58 0.00 90 1008.5
20260507002501 9 258 8.0 8.0 0.00 0.58 0.00 89 1008.3
20260507002002 9 220 6.4 8.0 0.00 0.58 0.00 89 1008.4
20260507001522 9 268 6.4 8.0 0.00 0.58 0.00 90 1008.4
20260507001002 9 232 9.7 12.9 0.00 0.58 0.00 90 1008.5
20260507000502 9 212 12.9 12.9 0.00 0.58 0.00 90 1008.5
20260507000003 9 238 6.4 9.7 0.00 0.58 0.00 90 1008.6
20260506235503 9 250 4.8 12.9 0.00 0.58 0.00 90 1008.5
20260506235002 9 235 9.7 11.3 0.00 0.58 0.00 91 1008.5
20260506234523 9 215 6.4 9.7 0.00 0.58 0.00 91 1008.5
20260506234022 9 230 14.5 14.5 0.00 0.58 0.00 91 1008.5
20260506233502 9 232 6.4 6.4 0.00 0.58 0.00 91 1008.5
20260506233002 9 222 8.0 9.7 0.00 0.58 0.00 91 1008.5
20260506232522 9 245 4.8 4.8 0.00 0.58 0.00 91 1008.3
20260506232002 9 260 6.4 8.0 0.00 0.58 0.00 90 1008.4
20260506231502 9 265 4.8 8.0 0.00 0.58 0.00 90 1008.4
20260506231002 9 218 8.0 8.0 0.00 0.58 0.00 90 1008.5
20260506230502 9 240 8.0 11.3 0.00 0.58 0.00 89 1008.4
20260506230023 9 235 8.0 8.0 0.00 0.58 0.00 89 1008.4
20260506225502 9 242 4.8 6.4 0.00 0.58 0.00 89 1008.3
20260506225002 9 238 9.7 17.7 0.00 0.58 0.00 89 1008.5
20260506224504 9 250 8.0 14.5 0.00 0.58 0.00 90 1008.4
20260506224002 9 248 6.4 17.7 0.00 0.58 0.00 90 1008.4
20260506223502 9 238 12.9 16.1 0.00 0.58 0.00 91 1008.4
20260506223002 9 238 4.8 6.4 0.00 0.58 0.00 91 1008.3
20260506222502 9 275 4.8 6.4 0.00 0.58 0.00 91 1008.3
20260506222002 9 252 8.0 8.0 0.00 0.58 0.00 91 1008.3
20260506221522 9 235 6.4 9.7 0.00 0.58 0.00 91 1008.3
20260506221002 9 252 6.4 8.0 0.00 0.58 0.00 92 1008.3
20260506220522 9 238 11.3 11.3 0.00 0.58 0.00 93 1008.2
20260506220002 9 215 6.4 9.7 0.00 0.58 0.00 93 1008.4
20260506215502 9 265 8.0 8.0 0.00 0.58 0.00 93 1008.2
20260506215002 9 252 3.2 6.4 0.00 0.58 0.58 93 1008.3
20260506214522 9 255 4.8 6.4 0.00 0.61 0.58 93 1008.1
20260506214002 9 232 4.8 4.8 0.00 0.64 0.58 93 1008.0
20260506213502 9 230 3.2 4.8 0.03 0.66 0.58 94 1008.0
20260506213002 9 235 4.8 4.8 0.03 0.69 0.58 93 1008.1
20260506212502 9 242 8.0 9.7 0.03 0.71 0.58 93 1008.1
20260506212022 9 205 4.8 6.4 0.03 0.71 0.58 93 1008.2
20260506211502 9 190 6.4 9.7 0.03 0.71 0.58 93 1008.1
20260506211002 9 182 6.4 9.7 0.03 0.74 0.58 93 1007.9
20260506210502 9 225 8.0 8.0 0.03 0.74 0.58 93 1008.0
20260506210001 9 188 4.8 8.0 0.03 0.84 0.58 92 1007.9
20260506205521 9 210 4.8 9.7 0.03 0.89 0.58 92 1007.9
20260506205021 9 205 4.8 11.3 0.03 0.91 0.58 92 1007.6
20260506204502 9 250 4.8 4.8 0.03 0.91 0.58 92 1007.6
20260506204002 9 208 4.8 6.4 0.03 0.94 0.58 92 1007.6
20260506203503 9 238 4.8 4.8 0.03 0.91 0.58 91 1007.5
20260506203001 9 235 4.8 9.7 0.03 0.91 0.58 91 1007.5
20260506202502 9 262 6.4 6.4 0.03 0.91 0.56 90 1007.5
20260506202002 10 250 4.8 9.7 0.03 0.91 0.56 90 1007.3
20260506201502 9 270 11.3 11.3 0.03 0.91 0.56 90 1007.3
20260506201001 9 275 6.4 9.7 0.03 0.91 0.56 89 1007.3
20260506200501 9 258 8.0 9.7 0.03 0.91 0.56 90 1007.3
20260506200001 9 230 6.4 9.7 0.03 0.91 0.56 90 1007.2
20260506195502 9 248 6.4 6.4 0.03 0.91 0.56 90 1007.0
20260506195001 9 242 9.7 9.7 0.03 0.91 0.56 90 1007.2
20260506194501 9 278 17.7 17.7 0.03 0.91 0.56 90 1007.0
20260506194001 9 242 6.4 12.9 0.03 0.89 0.56 90 1006.9
20260506193522 9 252 12.9 16.1 0.03 0.89 0.56 90 1007.0
20260506193001 9 255 16.1 17.7 0.03 0.89 0.56 91 1007.0
20260506192501 9 282 4.8 9.7 0.03 0.89 0.56 91 1006.8
20260506192021 10 265 11.3 17.7 0.00 0.89 0.53 90 1006.8
20260506191522 10 232 16.1 19.3 0.00 0.86 0.53 90 1006.8
20260506191022 10 270 12.9 19.3 0.00 0.86 0.53 90 1006.9
20260506190502 10 232 9.7 17.7 0.00 0.86 0.53 90 1007.0
20260506190001 10 258 11.3 12.9 0.00 0.86 0.53 89 1006.8
20260506185502 10 272 9.7 12.9 0.00 0.86 0.53 89 1006.9
20260506185001 10 252 9.7 14.5 0.00 0.86 0.53 89 1006.6
20260506184501 10 222 8.0 11.3 0.00 0.86 0.53 89 1006.4
20260506184001 10 265 9.7 12.9 0.00 0.86 0.53 89 1006.3
20260506183521 10 265 8.0 9.7 0.03 0.86 0.53 88 1006.2
20260506183002 10 282 11.3 22.5 0.03 0.86 0.53 87 1006.1
20260506182521 10 258 20.9 27.4 0.03 0.86 0.53 88 1006.1
20260506182001 10 265 19.3 27.4 0.03 0.86 0.53 88 1006.0
20260506181501 10 280 8.0 19.3 0.03 0.86 0.53 89 1005.8
20260506181001 10 270 6.4 8.0 0.05 0.86 0.53 90 1005.8
20260506180501 10 242 11.3 12.9 0.05 0.86 0.53 90 1005.8
20260506180021 10 320 8.0 27.4 0.05 0.86 0.53 89 1005.7
20260506175502 10 260 9.7 19.3 0.05 0.86 0.53 89 1005.7
20260506175001 10 250 12.9 22.5 0.05 0.86 0.53 89 1005.6
20260506174501 10 275 20.9 22.5 0.05 0.86 0.53 90 1005.3
20260506174001 10 250 17.7 32.2 0.05 0.86 0.53 89 1005.3
20260506173521 11 238 16.1 25.7 0.03 0.84 0.51 88 1005.1
20260506173001 11 208 9.7 24.1 0.03 0.84 0.51 91 1005.3
20260506172501 11 178 11.3 12.9 0.03 0.84 0.51 94 1005.1
20260506172002 11 245 16.1 16.1 0.03 0.84 0.51 95 1004.9
20260506171521 11 230 9.7 16.1 0.03 0.84 0.51 94 1004.5
20260506171001 11 208 9.7 17.7 0.03 0.84 0.51 95 1004.2
20260506170502 11 222 9.7 9.7 0.00 0.84 0.48 95 1004.2
20260506170002 11 248 8.0 16.1 0.00 0.81 0.48 94 1003.9
20260506165501 11 242 6.4 9.7 0.00 0.81 0.48 94 1003.9
20260506165021 11 235 8.0 9.7 0.00 0.81 0.48 93 1003.7
20260506164522 11 225 4.8 6.4 0.00 0.81 0.48 93 1003.4
20260506164001 11 228 3.2 6.4 0.00 0.81 0.48 93 1003.5
20260506163501 11 272 4.8 8.0 0.03 0.81 0.48 93 1003.4
20260506163002 11 248 6.4 6.4 0.03 0.81 0.48 93 1003.4
20260506162501 11 248 6.4 6.4 0.08 0.81 0.48 93 1003.3
20260506162001 11 228 6.4 6.4 0.23 0.81 0.48 92 1003.4
20260506161502 12 208 8.0 9.7 0.33 0.81 0.48 91 1003.6
20260506161022 12 272 3.2 4.8 0.38 0.81 0.48 90 1003.2
20260506160502 12 352 6.4 9.7 0.43 0.81 0.48 89 1003.1
20260506160002 11 358 6.4 8.0 0.46 0.81 0.48 90 1003.1
20260506155502 11 308 9.7 12.9 0.46 0.81 0.48 90 1003.3
20260506155002 11 322 11.3 14.5 0.46 0.81 0.48 91 1003.1
20260506154502 11 348 6.4 9.7 0.46 0.81 0.48 92 1003.2
20260506154002 11 28 12.9 20.9 0.46 0.81 0.48 92 1003.3
20260506153503 11 342 14.5 22.5 0.46 0.81 0.48 92 1003.3
20260506153002 11 272 11.3 12.9 0.46 0.81 0.46 93 1003.6
20260506152522 11 295 9.7 11.3 0.43 0.79 0.46 93 1003.9
20260506152003 11 298 16.1 20.9 0.41 0.76 0.41 93 1003.8
20260506151502 11 262 17.7 25.7 0.25 0.61 0.25 92 1004.2
20260506151002 12 260 11.3 22.5 0.13 0.51 0.15 92 1004.2
20260506150502 12 315 12.9 25.7 0.08 0.46 0.10 88 1004.3
20260506150004 14 248 17.7 41.8 0.03 0.46 0.05 80 1003.7
20260506145502 16 248 14.5 27.4 0.03 0.46 0.03 74 1002.9
20260506145002 16 310 8.0 17.7 0.00 0.43 0.03 70 1001.9
20260506144502 17 360 17.7 22.5 0.00 0.48 0.03 65 1001.4
20260506144002 17 312 8.0 11.3 0.00 0.53 0.03 62 1001.3
20260506143502 17 305 9.7 12.9 0.00 0.56 0.03 62 1001.3
20260506143002 17 360 8.0 9.7 0.00 0.58 0.03 63 1001.2
20260506142502 17 345 8.0 8.0 0.00 0.61 0.03 62 1001.0
20260506142002 18 358 9.7 12.9 0.00 0.66 0.03 60 1001.1
20260506141502 18 315 8.0 8.0 0.00 0.69 0.03 59 1001.2
20260506141002 18 315 9.7 12.9 0.00 0.69 0.03 58 1001.4
20260506140502 19 360 9.7 9.7 0.00 0.69 0.03 58 1001.4
20260506140002 19 358 16.1 20.9 0.00 0.69 0.03 58 1001.4
20260506135502 19 360 6.4 9.7 0.00 0.69 0.03 58 1001.4
20260506135002 19 272 11.3 19.3 0.00 0.69 0.03 56 1001.4
20260506134502 19 360 6.4 12.9 0.00 0.69 0.03 57 1001.6
20260506134002 18 328 12.9 17.7 0.00 0.69 0.03 58 1001.5
20260506133502 18 290 6.4 12.9 0.00 0.69 0.03 59 1001.7
20260506133002 18 32 9.7 12.9 0.00 0.69 0.03 59 1001.8
20260506132522 18 62 8.0 9.7 0.00 0.69 0.03 59 1001.7
20260506132021 18 12 6.4 6.4 0.00 0.69 0.03 60 1001.7
20260506131502 18 305 6.4 9.7 0.00 0.69 0.03 60 1001.9
20260506131002 18 320 11.3 12.9 0.00 0.69 0.03 59 1001.9
20260506130503 18 2 12.9 14.5 0.00 0.69 0.03 58 1002.0
20260506130002 18 340 6.4 8.0 0.00 0.69 0.03 56 1002.0
20260506125502 19 298 4.8 6.4 0.00 0.69 0.03 56 1002.1
20260506125002 19 58 9.7 9.7 0.00 0.69 0.03 55 1002.0
20260506124502 19 312 3.2 6.4 0.00 0.69 0.03 54 1002.3
20260506124001 18 82 6.4 11.3 0.00 0.69 0.03 56 1002.2
20260506123501 18 295 4.8 8.0 0.00 0.69 0.03 55 1002.3
20260506123001 18 15 6.4 6.4 0.00 0.69 0.03 56 1002.3
20260506122502 18 350 4.8 17.7 0.00 0.69 0.03 56 1002.5
20260506122021 18 82 8.0 8.0 0.00 0.69 0.03 57 1002.3
20260506121502 18 55 8.0 9.7 0.00 0.69 0.03 58 1002.5
20260506121001 18 2 9.7 9.7 0.00 0.69 0.03 58 1002.6
20260506120501 17 328 3.2 6.4 0.00 0.69 0.03 60 1002.7
20260506120001 17 75 4.8 9.7 0.00 0.69 0.03 59 1002.8
20260506115522 17 8 6.4 12.9 0.00 0.69 0.03 58 1002.9
20260506115002 17 78 9.7 12.9 0.00 0.69 0.03 59 1002.9
20260506114502 17 80 9.7 11.3 0.00 0.69 0.03 59 1003.0
20260506114021 17 122 9.7 14.5 0.00 0.69 0.03 59 1003.1
20260506113502 17 118 8.0 12.9 0.00 0.69 0.03 59 1003.3
20260506113002 17 60 9.7 12.9 0.00 0.69 0.03 59 1003.1
20260506112501 17 22 8.0 9.7 0.00 0.69 0.03 59 1003.2
20260506112001 17 20 6.4 11.3 0.00 0.69 0.03 58 1003.3
20260506111502 17 28 4.8 6.4 0.00 0.69 0.03 59 1003.3
20260506111021 17 268 4.8 4.8 0.00 0.69 0.03 59 1003.4
20260506110502 17 328 3.2 3.2 0.00 0.69 0.03 61 1003.4
20260506110001 17 350 6.4 16.1 0.00 0.69 0.03 60 1003.3
20260506105501 17 72 11.3 16.1 0.00 0.69 0.03 59 1003.4
20260506105001 17 298 3.2 8.0 0.00 0.69 0.03 60 1003.7
20260506104521 17 88 9.7 11.3 0.00 0.69 0.03 58 1003.7
20260506104002 17 38 11.3 11.3 0.00 0.69 0.03 58 1003.7
20260506103501 17 20 9.7 9.7 0.00 0.69 0.03 59 1003.8
20260506103022 17 85 9.7 9.7 0.00 0.69 0.03 59 1003.9
20260506102501 17 12 6.4 11.3 0.00 0.69 0.03 58 1004.1
20260506102001 17 68 6.4 9.7 0.00 0.69 0.03 57 1004.1
20260506101501 17 52 6.4 6.4 0.00 0.69 0.03 57 1003.9
20260506101001 17 12 6.4 6.4 0.00 0.69 0.03 61 1004.1
20260506100501 17 48 8.0 8.0 0.00 0.69 0.03 59 1004.3
20260506100001 17 110 3.2 6.4 0.00 0.69 0.03 62 1004.2
20260506095501 17 332 6.4 8.0 0.00 0.69 0.03 63 1004.1
20260506095002 17 238 1.6 4.8 0.00 0.69 0.03 63 1004.2
20260506094501 17 90 4.8 6.4 0.00 0.69 0.03 62 1004.2
20260506094001 17 25 3.2 4.8 0.00 0.69 0.03 63 1004.2
20260506093501 17 338 6.4 6.4 0.00 0.69 0.03 63 1004.3
20260506093001 16 318 3.2 6.4 0.00 0.69 0.03 63 1004.3
20260506092501 17 20 11.3 11.3 0.00 0.69 0.03 62 1004.2
20260506092001 17 322 4.8 6.4 0.00 0.69 0.03 62 1004.2
20260506091503 17 210 1.6 3.2 0.00 0.69 0.03 62 1004.1
20260506091001 16 318 3.2 6.4 0.00 0.69 0.03 63 1004.3
20260506090501 16 290 3.2 4.8 0.00 0.69 0.03 63 1004.2
20260506090001 17 170 3.2 4.8 0.00 0.69 0.03 61 1004.2
20260506085501 16 348 4.8 6.4 0.00 0.69 0.03 64 1004.3